Hourly Data Report for October 07, 2015

All times are specified in Local Standard Time (LST). Add 1 hour to adjust for Daylight Saving Time where and when it is observed.

PETAWAWA AWOS 2
ONTARIO

45°57'00.000" N
77°19'00.000" W
130.10 m
6106396
71625
YWA

Download Data

Hourly Data (October 2015)
Hourly Data Report for October 7, 2015
Temp Definition
°C
Dew Point Temp Definition
°C
Rel Hum Definition
%
Wind Dir Definition
10's deg

Wind Spd Definition
km/h
Visibility Definition
km
Stn Press Definition
kPa
Hmdx Definition


Wind Chill Definition


Weather Definition


TIME
00:00 10.2 8.7 90   0 14.5 99.90     LegendNANA
01:00 8.2 7.5 95   0 14.5 99.89     LegendNANA
02:00 8.3 7.8 97 24 4 14.5 99.88     LegendNANA
03:00 7.4 6.7 95 23 6 14.5 99.84     LegendNANA
04:00 5.6 5.2 97 25 4 0.5 99.83     LegendNANA
05:00 3.7 3.2 96 26 7 14.5 99.85     LegendNANA
06:00 7.7 7.0 95 26 7 14.5 99.86     LegendNANA
07:00 10.3 8.9 91 28 11 14.5 99.92     LegendNANA
08:00 11.4 9.0 85 28 9 14.5 99.99     LegendNANA
09:00 12.6 8.7 77 29 15 14.5 100.01     LegendNANA
10:00 14.2 9.0 71 29 9 14.5 100.03     Drizzle
11:00 14.4 8.2 66 31 9 14.5 100.02     LegendNANA
12:00 16.7 7.2 53 32 15 14.5 100.01     LegendNANA
13:00 15.5 5.0 50 34 22 14.5 100.02     LegendNANA
14:00 16.6 4.5 45 34 26 14.5 100.01     LegendNANA
15:00 17.1 4.3 43 29 15 14.5 100.04     LegendNANA
16:00 15.7 2.9 42 34 28 14.5 100.09     LegendNANA
17:00 13.9 1.6 43 34 19 14.5 100.17     LegendNANA
18:00 11.4 1.3 50 34 15 14.5 100.26     LegendNANA
19:00 9.4 0.8 55 34 11 14.5 100.33     LegendNANA
20:00 10.0 1.1 54 31 7 14.5 100.39     LegendNANA
21:00 8.2 1.6 63 31 6 14.5 100.47     LegendNANA
22:00 8.2 1.2 61 34 9 14.5 100.51     LegendNANA
23:00 7.5 1.3 65 32 13 14.5 100.55     LegendNANA

Notes on Data Quality.

Legend

  • E = Estimated
  • M = Missing
  • NA = Not Available
  • ‡ = Partner data that is not subject to review by the National Climate Archives
Date modified: